Location: Czekanka
(50.4925°N, 19.2643°E)
Time: 08:13:32
(UTC+00:00)

SL-16 R/B - Pass Details

Date: 26 September 2024
Orbit: 842 x 846 km, 71.0° (Epoch: 05 October)

Event Time Altitude Azimuth Distance (km) Brightness Sun altitude
Rises 22:42:45 0° 326° (NW) 3,412 5.9 -41.2°
Reaches altitude 10° 22:47:43 10° 4° (N) 2,474 5.3 -41.1°
Maximum altitude 22:48:58 11° 16° (NNE) 2,425 5.2 -41.1°
Drops below altitude 10° 22:50:13 10° 29° (NNE) 2,473 5.2 -41.1°
Sets 22:55:10 0° 67° (ENE) 3,405 5.7 -41.0°
